TITAN 3C TRANSTAGE DEB, 28805

Orbit data source: Space-Track

TITAN 3C TRANSTAGE DEB, 28805 is space debris in HEO originally from a launch on Tue, 21 Dec 1965 UTC launched from the Air Force Eastern Test Range (AFETR). Debris objects in space refer to the collection of defunct objects orbiting the Earth. Examples of debris include non-operational satellites, rocket bodies, and fragments generated from explosions, collisions, or faulty payload assembly.

Loading next visibility...
Identifier
28805, 1965-108BX
Orbit
HEO
Country
Flag of USUS
Related business
Manufacturer
Unknown
Mission
Spacecraft
Bus & Motor
Unknown
Mass
Unknown
Launch date (UTC)
1965-12-21 (60 years ago)
Launch vehicle
Unknown
Launch site
Air Force Eastern Test Range (AFETR)
Object type
Payload
Rocket body
Debris
Shape & HBR
Unknown
Radar Cross Section
Small (<0.1 m²)

Expand to show TLE details & history
Last TLE update: 9 months ago

TLE from 9 months ago
0 TITAN 3C TRANSTAGE DEB
1 28805U 65108BX  25009.12220778  .00000654  00000-0  53592-2 0  9999
2 28805  26.2108 152.6827 6773099 164.0043 359.5689  2.75706389119704
Epoch: 2025-01-09T02:55Z
TLE epoch observation values (Epoch: 2025-01-09T02:55:58.752Z)
Latitude
7.95983°
Longitude
163.36144°
Altitude
547.944 km
Speed
9.826 km/s
True Right ascension
21h 05m 02s
True Declination
7° 54' 41"
Sunlit
Object was in daylight at epoch
Visualization orbit readout
Latitude
Unknown
Longitude
Unknown
Altitude
Unknown
Speed
Unknown
Apparent Right ascension
Unknown
Apparent Declination
Unknown
Sunlit
N/A
Visualization observer readout
Local Sidereal Time
13:37:10
Azimuth
Unknown
Elevation
Unknown
Doppler factor
Unknown
Orbital elements
Apogee altitude
29,662.392 km
Perigee altitude
555.538 km
Semi-major axis
21,487.102 km
Eccentricity
0.67731
Inclination
26.2108°
RAAN
152.6827°
Arg. of periapsis
164.0043°
True anomaly
356.95532°
Mean anomaly
359.5689°
Eccentric anomaly
358.6643°
Mean motion
0.68909 °/min
Orbital period
522.43 mins
BSTAR
0.0053592
Loading maneuver chart data...
Computing Atmospheric mass density...

Documentation

Showing up to 5 results
|